[[{"header":{"parameterUnit":"m.s-1","parameterCategory":1,"la1":30.2991,"la2":30.254,"lo1":-89.0895,"lo2":-89.0444,"dy":0.0017,"dx":0.0017,"nx":28,"ny":28,"refTime":"2025-08-19T09:00:00:Z","depth":0,"parameterNumber":2,"parameterNumberName":"U-component_of_WINDS"},"data":[0,0,0,0,0,0,0,0,0,0,0,0,0,0,0,0,0,0,0,0,0,0,0,0,0,0,0,0,0,0,0,0,0,0,0,0,0,0,0,0,0,0,0,0,0,0,0,0,0,0,0,0,0,0,0,0,0,0,-0.0091,-0.0091,0,-0.0107,-0.0107,-0.0107,-0.0077,-0.0076,-0.0075,-0.0074,-0.0093,-0.0094,-0.0096,0,0,0,0,0,0,0,0,0,0,0,0,0,-0.0036,-0.0037,-0.0091,-0.0091,-0.0091,-0.0107,-0.0107,-0.0107,-0.0077,-0.0076,-0.0074,-0.0073,-0.0092,-0.0094,-0.0096,0,0,0,0,0,0,0,0,0,0,0,0,0,-0.0057,-0.0038,-0.0091,-0.0078,-0.0077,-0.0107,-0.0107,-0.0107,-0.0077,-0.0076,-0.0074,-0.0073,-0.0092,-0.0094,-0.0096,-0.014,0,0,-0.0103,-0.0104,0,0,0,0,0,0,0,0,-0.0056,-0.0059,-0.008,-0.0079,-0.0078,-0.0088,-0.0095,-0.0118,-0.0078,-0.0077,-0.0074,-0.0072,-0.0093,-0.0095,-0.0101,-0.0141,-0.0142,-0.0103,-0.0104,-0.0105,-0.0106,0,0,0,0,0,0,0,-0.0054,-0.0058,-0.0097,-0.008,-0.0079,-0.0072,-0.0073,-0.0099,-0.0093,-0.0077,-0.0075,-0.0077,-0.0092,-0.0099,-0.0101,-0.0142,-0.0103,-0.0105,-0.0106,-0.0107,-0.022,-0.0221,0,0,0,0,0,0,-0.0054,-0.0057,-0.0097,-0.0098,-0.0063,-0.0074,-0.0076,-0.0086,-0.0093,-0.0092,-0.0078,-0.0076,-0.0096,-0.0099,-0.0102,-0.0154,-0.0105,-0.0107,-0.0108,-0.0218,-0.022,-0.0222,0,0,0,0,0,0,-0.0053,-0.0058,-0.0096,-0.0077,-0.0081,-0.0077,-0.0089,-0.0088,-0.0095,-0.0094,-0.0093,-0.0087,-0.0095,-0.0099,-0.0131,-0.0155,-0.0108,-0.011,-0.0216,-0.0218,-0.0221,-0.026,0,0,0,0,0,0,-0.0052,-0.0058,-0.0074,-0.0077,-0.0082,-0.0124,-0.0091,-0.0089,-0.0098,-0.0095,-0.0101,-0.0101,-0.0094,-0.0128,-0.0133,-0.0157,-0.0112,-0.0214,-0.0217,-0.022,-0.0256,-0.0263,-0.0269,0,0,0,0,0,-0.005,-0.0085,-0.0075,-0.008,-0.0102,-0.0126,-0.0129,-0.0119,-0.01,-0.0117,-0.0116,-0.0101,-0.0151,-0.0131,-0.0137,-0.0162,-0.0212,-0.0216,-0.022,-0.0254,-0.0262,-0.0269,0,0,0,0,0,0,-0.0085,-0.0085,-0.0074,-0.0111,-0.0119,-0.012,-0.0141,-0.0128,-0.0142,-0.0138,-0.0126,-0.0128,-0.0163,-0.0165,-0.0143,-0.0205,-0.0179,-0.0184,-0.0202,-0.021,-0.0217,-0.0216,-0.0114,0,0,0,0,0,-0.0097,-0.0116,-0.0114,-0.0147,-0.0151,-0.0146,-0.0156,-0.0147,-0.0155,-0.0158,-0.016,-0.0169,-0.0186,-0.0198,-0.0214,-0.0256,-0.0258,-0.0276,-0.0283,-0.0288,-0.0293,-0.0316,-0.0324,-0.0234,-0.0234,-0.0234,0,0,-0.0123,-0.0125,-0.0137,-0.0155,-0.0159,-0.0179,-0.0149,-0.0171,-0.0186,-0.0162,-0.0192,-0.0194,-0.0203,-0.024,-0.0256,-0.0243,-0.0318,-0.0293,-0.0297,-0.0299,-0.0321,-0.0329,-0.0337,-0.0237,-0.0236,-0.0236,0,0,-0.0179,-0.0182,-0.021,-0.0215,-0.0223,-0.0218,-0.0225,-0.0229,-0.0229,-0.0259,-0.0241,-0.0259,-0.0289,-0.0297,-0.0304,-0.0363,-0.035,-0.0369,-0.0403,-0.0425,-0.0433,-0.0439,-0.0461,-0.0468,-0.0373,-0.0373,-0.0373,0,-0.021,-0.0239,-0.0226,-0.025,-0.0258,-0.0236,-0.0265,-0.0271,-0.0284,-0.029,-0.0275,-0.0313,-0.0317,-0.0356,-0.037,-0.0377,-0.0385,-0.0368,-0.0432,-0.0438,-0.0444,-0.0465,-0.0473,-0.0376,-0.0375,-0.0375,-0.0375,0,-0.0277,-0.0297,-0.0319,-0.0331,-0.0341,-0.0367,-0.036,-0.0372,-0.0363,-0.0361,-0.0392,-0.0396,-0.0413,-0.0421,-0.0413,-0.0459,-0.0451,-0.0434,-0.0407,-0.0455,-0.0475,-0.0482,-0.0379,-0.0378,-0.0378,-0.0377,0,0,-0.0358,-0.0361,-0.037,-0.0375,-0.0381,-0.0397,-0.0422,-0.0437,-0.0449,-0.0458,-0.048,-0.0506,-0.049,-0.0499,-0.0491,-0.051,-0.0558,-0.0491,-0.0491,-0.0504,-0.061,-0.0623,-0.0633,-0.0548,-0.055,-0.0551,-0.0609,0,-0.0414,-0.0457,-0.0446,-0.0489,-0.0508,-0.0487,-0.0509,-0.0515,-0.0514,-0.053,-0.0528,-0.0547,-0.0525,-0.053,-0.0548,-0.0548,-0.0579,-0.0544,-0.0569,-0.057,-0.0569,-0.0642,-0.0657,-0.0712,-0.0617,-0.0618,-0.0619,0,-0.0487,-0.0498,-0.0542,-0.0545,-0.0552,-0.0572,-0.0586,-0.0601,-0.0609,-0.0606,-0.0615,-0.0604,-0.0629,-0.0601,-0.0637,-0.0613,-0.0623,-0.0624,-0.0626,-0.0629,-0.0598,-0.0649,-0.0729,-0.0738,-0.0631,-0.063,-0.0629,0,-0.0542,-0.0568,-0.0598,-0.0603,-0.0607,-0.0622,-0.0624,-0.063,-0.064,-0.0652,-0.0658,-0.0673,-0.0682,-0.0694,-0.0687,-0.0667,-0.0724,-0.0696,-0.0724,-0.0724,-0.0738,-0.0737,-0.0822,-0.0742,-0.0742,-0.0742,-0.0742,0,-0.0607,-0.0636,-0.0623,-0.0642,-0.0673,-0.066,-0.0692,-0.0692,-0.0697,-0.0716,-0.0698,-0.0717,-0.0705,-0.0723,-0.0717,-0.0748,-0.0752,-0.0752,-0.075,-0.0754,-0.0754,-0.0761,-0.0757,-0.0744,-0.0744,-0.0743,-0.0743,0,-0.0675,-0.0668,-0.0699,-0.07,-0.0701,-0.0724,-0.0725,-0.0743,-0.0739,-0.0763,-0.0768,-0.0764,-0.0783,-0.0777,-0.0798,-0.0795,-0.0834,-0.0827,-0.0832,-0.083,-0.0859,-0.0857,-0.0953,-0.0965,-0.0876,-0.0877,-0.0878,0,-0.0718,-0.0739,-0.0742,-0.0753,-0.0756,-0.0774,-0.0784,-0.0773,-0.0784,-0.0793,-0.081,-0.0828,-0.0842,-0.0874,-0.0873,-0.089,-0.0884,-0.0916,-0.0886,-0.0889,-0.0885,-0.0885,-0.0887,-0.0922,-0.0923,-0.0924,-0.0925,0,-0.0795,-0.079,-0.0805,-0.0818,-0.083,-0.084,-0.0849,-0.0859,-0.0848,-0.0862,-0.0881,-0.0892,-0.0913,-0.0932,-0.0946,-0.0949,-0.0936,-0.0934,-0.0942,-0.0946,-0.0949,-0.0949,-0.0849,-0.0932,-0.0932,-0.0931,-0.0931,-0.093,-0.0853,-0.087,-0.0875,-0.0892,-0.0897,-0.0905,-0.0922,-0.092,-0.0936,-0.0952,-0.0944,-0.0967,-0.0974,-0.0992,-0.0997,-0.1015,-0.1003,-0.1014,-0.1017,-0.102,-0.1024,-0.0945,-0.1018,-0.1017,-0.1017,-0.1017,-0.1017,0,-0.093,-0.0931,-0.0947,-0.0959,-0.0972,-0.0957,-0.0965,-0.0978,-0.0998,-0.1005,-0.1019,-0.1041,-0.1059,-0.1059,-0.1075,-0.109,-0.1084,-0.1095,-0.1094,-0.1095,-0.1034,-0.1026,-0.1099,-0.1099,-0.1099,-0.1099,-0.1099,-0.1099,-0.0971,-0.1001,-0.0997,-0.1029,-0.103,-0.1052,-0.1058,-0.1066,-0.1071,-0.1097,-0.1111,-0.1111,-0.1115,-0.1132,-0.1147,-0.1147,-0.1154,-0.1168,-0.1165,-0.1108,-0.11,-0.1092,-0.1085,-0.1169,-0.1169,-0.1226,-0.1226,-0.1227]},{"header":{"parameterUnit":"m.s-1","parameterCategory":1,"la1":30.2991,"la2":30.254,"lo1":-89.0895,"lo2":-89.0444,"dy":0.0017,"dx":0.0017,"nx":28,"ny":28,"refTime":"2025-08-19T09:00:00:Z","depth":0,"parameterNumber":3,"parameterNumberName":"V-component_of_WINDS"},"data":[0,0,0,0,0,0,0,0,0,0,0,0,0,0,0,0,0,0,0,0,0,0,0,0,0,0,0,0,0,0,0,0,0,0,0,0,0,0,0,0,0,0,0,0,0,0,0,0,0,0,0,0,0,0,0,0,0,0,-0.3465,-0.3466,0,-0.3516,-0.3516,-0.3517,-0.3549,-0.3549,-0.355,-0.355,-0.3605,-0.3606,-0.3607,0,0,0,0,0,0,0,0,0,0,0,0,0,-0.34,-0.3401,-0.3465,-0.3466,-0.3466,-0.3515,-0.3516,-0.3517,-0.3549,-0.3549,-0.355,-0.355,-0.3604,-0.3606,-0.3607,0,0,0,0,0,0,0,0,0,0,0,0,0,-0.3437,-0.3401,-0.3465,-0.3488,-0.3491,-0.3515,-0.3516,-0.3517,-0.3549,-0.3549,-0.355,-0.355,-0.3604,-0.3606,-0.3607,-0.3614,0,0,-0.3613,-0.3614,0,0,0,0,0,0,0,0,-0.3435,-0.344,-0.3484,-0.3487,-0.349,-0.3526,-0.3513,-0.355,-0.3549,-0.3527,-0.355,-0.355,-0.3579,-0.3583,-0.3591,-0.3616,-0.3618,-0.3613,-0.3615,-0.3615,-0.3616,0,0,0,0,0,0,0,-0.3432,-0.3438,-0.3485,-0.3485,-0.3488,-0.3497,-0.3503,-0.352,-0.3551,-0.3529,-0.3532,-0.3537,-0.358,-0.359,-0.3593,-0.3619,-0.3613,-0.3615,-0.3616,-0.3617,-0.3652,-0.3652,0,0,0,0,0,0,-0.3426,-0.3435,-0.3484,-0.3487,-0.3462,-0.3498,-0.3505,-0.3514,-0.3551,-0.3556,-0.3537,-0.3538,-0.3586,-0.3591,-0.3595,-0.3605,-0.3615,-0.3617,-0.3618,-0.3653,-0.3652,-0.3652,0,0,0,0,0,0,-0.3424,-0.343,-0.3482,-0.3462,-0.3469,-0.3499,-0.351,-0.3515,-0.3525,-0.3556,-0.3562,-0.354,-0.3587,-0.3592,-0.3609,-0.3607,-0.3618,-0.362,-0.3653,-0.3652,-0.3652,-0.3625,0,0,0,0,0,0,-0.3422,-0.3429,-0.3431,-0.3461,-0.347,-0.3493,-0.351,-0.3516,-0.3527,-0.353,-0.3561,-0.3567,-0.3587,-0.3606,-0.3611,-0.361,-0.3621,-0.3653,-0.3653,-0.3652,-0.3626,-0.3623,-0.3621,0,0,0,0,0,-0.342,-0.3422,-0.3431,-0.3436,-0.3473,-0.3493,-0.3498,-0.352,-0.3527,-0.353,-0.355,-0.3566,-0.3607,-0.3607,-0.3613,-0.3613,-0.3653,-0.3653,-0.3652,-0.3627,-0.3624,-0.3621,0,0,0,0,0,0,-0.3391,-0.3426,-0.3437,-0.3448,-0.3467,-0.3498,-0.3502,-0.3516,-0.3535,-0.3537,-0.3565,-0.3572,-0.3585,-0.3601,-0.3601,-0.3621,-0.3632,-0.3633,-0.361,-0.3608,-0.3606,-0.3602,-0.3623,0,0,0,0,0,-0.3386,-0.3398,-0.3429,-0.3436,-0.3445,-0.3472,-0.3482,-0.3497,-0.3519,-0.3527,-0.3549,-0.357,-0.3588,-0.3599,-0.3617,-0.3628,-0.3636,-0.3631,-0.3629,-0.3627,-0.3627,-0.3635,-0.3634,-0.365,-0.3651,-0.3651,0,0,-0.3376,-0.3396,-0.3403,-0.3431,-0.3447,-0.3461,-0.3479,-0.3492,-0.3503,-0.353,-0.3546,-0.3563,-0.3588,-0.3602,-0.361,-0.3616,-0.3625,-0.3626,-0.3625,-0.3626,-0.3635,-0.3633,-0.3632,-0.365,-0.365,-0.365,0,0,-0.3364,-0.338,-0.3388,-0.3405,-0.3429,-0.3447,-0.3449,-0.3478,-0.349,-0.3507,-0.3527,-0.3541,-0.3571,-0.3588,-0.3601,-0.3596,-0.3611,-0.3601,-0.359,-0.3597,-0.3596,-0.3595,-0.3594,-0.3593,-0.3601,-0.3601,-0.3601,0,-0.3348,-0.3368,-0.3391,-0.3403,-0.3415,-0.3439,-0.3448,-0.3463,-0.3493,-0.3501,-0.3508,-0.3545,-0.3564,-0.3583,-0.3582,-0.3591,-0.3595,-0.3598,-0.3594,-0.3593,-0.3593,-0.3592,-0.3591,-0.36,-0.36,-0.36,-0.36,0,-0.3348,-0.3362,-0.3366,-0.3393,-0.3405,-0.3416,-0.3441,-0.3451,-0.3466,-0.3484,-0.3501,-0.3524,-0.3548,-0.3553,-0.3568,-0.3574,-0.3577,-0.3588,-0.36,-0.3589,-0.3589,-0.3589,-0.3598,-0.3598,-0.3599,-0.3599,0,0,-0.332,-0.3359,-0.336,-0.3373,-0.3402,-0.3414,-0.3426,-0.3447,-0.3456,-0.3476,-0.3487,-0.3512,-0.3522,-0.3537,-0.3554,-0.356,-0.3555,-0.3571,-0.3572,-0.3567,-0.3565,-0.3556,-0.3555,-0.3566,-0.3566,-0.3566,-0.3563,0,-0.3313,-0.3334,-0.3355,-0.337,-0.3383,-0.3407,-0.3417,-0.3437,-0.3454,-0.3469,-0.3488,-0.3505,-0.3517,-0.3526,-0.3533,-0.3554,-0.3555,-0.3555,-0.3578,-0.3578,-0.3571,-0.3555,-0.3547,-0.3542,-0.3563,-0.3563,-0.3563,0,-0.3307,-0.3325,-0.334,-0.3369,-0.3375,-0.3384,-0.3406,-0.342,-0.3443,-0.3455,-0.3471,-0.3488,-0.3504,-0.3513,-0.3535,-0.3534,-0.3545,-0.3556,-0.3557,-0.356,-0.357,-0.3559,-0.3542,-0.3541,-0.3563,-0.3563,-0.3563,0,-0.3285,-0.3313,-0.3326,-0.3336,-0.3369,-0.3375,-0.339,-0.3413,-0.3425,-0.3445,-0.3453,-0.3474,-0.3486,-0.3503,-0.3526,-0.3531,-0.3546,-0.3557,-0.3557,-0.3556,-0.3559,-0.3559,-0.3544,-0.3565,-0.3565,-0.3565,-0.3565,0,-0.3275,-0.3284,-0.3317,-0.3325,-0.3336,-0.3361,-0.3371,-0.3388,-0.3408,-0.3421,-0.3442,-0.3454,-0.3484,-0.35,-0.3518,-0.3534,-0.3539,-0.355,-0.3555,-0.3548,-0.3547,-0.3556,-0.3557,-0.3565,-0.3565,-0.3565,-0.3565,0,-0.3253,-0.3275,-0.3291,-0.3321,-0.3328,-0.3335,-0.3361,-0.3371,-0.3389,-0.3404,-0.3409,-0.3438,-0.3458,-0.3483,-0.351,-0.3523,-0.3536,-0.3544,-0.3528,-0.3531,-0.353,-0.353,-0.3521,-0.3521,-0.3541,-0.3541,-0.3541,0,-0.3245,-0.3252,-0.3283,-0.3292,-0.3305,-0.332,-0.3332,-0.3357,-0.3369,-0.3396,-0.3402,-0.3423,-0.3441,-0.3471,-0.3495,-0.3517,-0.3525,-0.3521,-0.3529,-0.3522,-0.3526,-0.3525,-0.3526,-0.3519,-0.3518,-0.3518,-0.3518,0,-0.3229,-0.324,-0.3256,-0.3276,-0.3289,-0.3306,-0.3325,-0.3331,-0.336,-0.3373,-0.3392,-0.3406,-0.3434,-0.3455,-0.3479,-0.3495,-0.3512,-0.3515,-0.3516,-0.351,-0.3501,-0.3506,-0.3523,-0.3515,-0.3516,-0.3516,-0.3516,-0.3516,-0.3214,-0.3222,-0.3244,-0.3262,-0.3278,-0.3294,-0.3305,-0.3324,-0.334,-0.3364,-0.3378,-0.3397,-0.3421,-0.3455,-0.3471,-0.3487,-0.3493,-0.3495,-0.3495,-0.3496,-0.3494,-0.3497,-0.3492,-0.3492,-0.3492,-0.3492,-0.3492,0,-0.32,-0.3215,-0.3231,-0.3255,-0.3269,-0.3282,-0.3303,-0.3314,-0.3331,-0.3351,-0.3368,-0.3391,-0.3411,-0.3437,-0.3459,-0.3467,-0.3475,-0.3472,-0.3472,-0.3476,-0.3486,-0.3483,-0.3465,-0.3465,-0.3465,-0.3465,-0.3465,-0.3465,-0.3194,-0.3208,-0.3221,-0.3244,-0.326,-0.3278,-0.3289,-0.3304,-0.3321,-0.3345,-0.3361,-0.3378,-0.34,-0.3425,-0.3444,-0.3451,-0.3459,-0.3454,-0.3463,-0.3473,-0.3475,-0.3477,-0.3474,-0.3455,-0.3455,-0.3451,-0.3451,-0.3451]}]]